This is the latest recevied weather packets stored in our database for station/object XQ6AK-15. If no packets are shown the sender has not sent any weather packets the latest 10 day(s).
| Time | Temp. | Humidity | Pressure | Rain* | Wind** | Luminosity | Snow |
|---|---|---|---|---|---|---|---|
| 1787610170 | 8.89° C | 99% | 1009.9 hPa | 1.27 mm | - | 0 W/m² | - |
| 1787609869 | 8.89° C | 99% | 1009.8 hPa | 1.78 mm | - | 0 W/m² | - |
| 1787609563 | 8.89° C | 99% | 1009.8 hPa | 1.78 mm | - | 0 W/m² | - |
| 1787609257 | 8.89° C | 99% | 1009.5 hPa | 0 mm | - | 0 W/m² | - |
| 1787608957 | 8.89° C | 99% | 1009.4 hPa | 1.78 mm | - | 2 W/m² | - |
| 1787608652 | 8.89° C | 99% | 1009.3 hPa | 1.27 mm | - | 1 W/m² | - |
| 1787608347 | 8.89° C | 99% | 1009.2 hPa | 3.05 mm | - | 3 W/m² | - |
| 1787608044 | 8.89° C | 99% | 1009.2 hPa | 1.78 mm | - | 2 W/m² | - |
| 1787607740 | 8.89° C | 99% | 1009.3 hPa | 0 mm | - | 3 W/m² | - |
| 1787607437 | 8.89° C | 99% | 1009.2 hPa | 0 mm | - | 2 W/m² | - |
| 1787607134 | 8.89° C | 99% | 1009 hPa | 0 mm | - | 7 W/m² | - |
| 1787606828 | 8.89° C | 99% | 1008.9 hPa | 0 mm | - | 4 W/m² | - |
| 1787606527 | 8.89° C | 99% | 1009.2 hPa | 0 mm | - | 3 W/m² | - |
| 1787606226 | 8.89° C | 99% | 1008.9 hPa | 0 mm | - | 9 W/m² | - |
| 1787605920 | 8.89° C | 99% | 1009.2 hPa | 0 mm | - | 10 W/m² | - |
| 1787605619 | 8.89° C | 99% | 1009.1 hPa | 0 mm | - | 10 W/m² | - |
| 1787605315 | 8.89° C | 99% | 1008.9 hPa | 1.27 mm | - | 12 W/m² | - |
| 1787605010 | 8.89° C | 99% | 1008.9 hPa | 1.27 mm | - | 25 W/m² | - |
| 1787604710 | 8.89° C | 99% | 1009 hPa | 1.78 mm | - | 28 W/m² | - |
| 1787604409 | 8.89° C | 99% | 1009 hPa | 1.78 mm | - | 24 W/m² | - |
| 1787604104 | 8.89° C | 99% | 1009.2 hPa | 1.27 mm | - | 26 W/m² | - |
| 1787603804 | 8.89° C | 99% | 1009.1 hPa | 1.27 mm | - | 36 W/m² | - |
| 1787603499 | 8.33° C | 99% | 1009.2 hPa | 1.78 mm | - | 53 W/m² | - |
| 1787603195 | 8.33° C | 99% | 1009.4 hPa | 1.78 mm | - | 47 W/m² | - |
| 1787602891 | 8.33° C | 99% | 1009.5 hPa | 0 mm | - | 29 W/m² | - |
* Rain latest hour (hover to see other rain measurements)
** Current wind speed in m/s (hover to see current wind gust speed)